Regional Weather Roundup
Issued by NWS Goodland, KS

Home | Current Version | Previous Version | Graphics & Text | Print | Product List | Glossary On
Versions: 1 2 3 4 5 6 7 8 9 10 11 12 13 14 15 16 17 18 19 20 21 22 23 24 25 26 27 28 29 30 31 32 33 34 35 36 37 38 39 40 41 42 43 44 45 46 47 48 49 50
000
ASUS43 KGLD 161808
RWRGLD

GOODLAND FORECAST AREA HOURLY WEATHER ROUNDUP
NATIONAL WEATHER SERVICE GOODLAND KS
1200 PM MDT MON OCT 16 2017

...OFFICIAL OBSERVATIONS...

CITY           SKY/WX    TMP DP  RH WIND       PRES   REMARKS
GOODLAND KS    SUNNY     72  32  23 S17G28    30.23F
HILL CITY KS   NOT AVBL
IMPERIAL NEB   SUNNY     75  19  12 SW16G24   30.20F
MCCOOK NEB     SUNNY     77  30  17 S18G29    30.21F
AKRON CO       NOT AVBL
BURLINGTON CO  CLOUDY    76  22  13 S16       30.25F
LIMON CO       SUNNY     74   9   8 SW9       30.29F
$$

...UNOFFICIAL OBSERVATIONS...

CITY           SKY/WX    TMP DP  RH WIND       PRES   REMARKS
NORTON KS      SUNNY     73  25  16 S21G29    30.23F
YUMA CO        FAIR      70  28  21 SW8       30.23F
$$




USA.gov is the U.S. government's official web portal to all federal, state and local government web resources and services.